• In Uzbekistan
  • List of Countries
  • For 7 days
  • Water Temperature
  • Satellite Maps
  • Weather Map
  • Weather Widgets
  • user-avatar
    Login

    Hourly Weather Larisa

    Today, 22 February, Thursday

    Time Temperature Precipitation Wind Pressure Humidity
    00:00 +9°C° 1.4 mm 2 mps 748 mmHg 95%
    01:00 +9°C° 1.4 mm 2 mps 748 mmHg 96%
    02:00 +9°C° 1.2 mm 2 mps 748 mmHg 95%
    03:00 +9°C° 1.2 mm 2 mps 748 mmHg 95%
    04:00 +9°C° 1.2 mm 2 mps 748 mmHg 95%
    05:00 +9°C° 0.8 mm 2 mps 748 mmHg 95%
    06:00 +9°C° 0.8 mm 2 mps 748 mmHg 95%
    07:00 +9°C° 0.8 mm 2 mps 748 mmHg 94%
    08:00 +10°C° 0.5 mm 2 mps 748 mmHg 92%
    09:00 +10°C° 0.5 mm 2 mps 748 mmHg 89%
    10:00 +12°C° 0.5 mm 2 mps 749 mmHg 86%
    11:00 +13°C° 0.3 mm 2 mps 749 mmHg 84%
    12:00 +13°C° 0.3 mm 2 mps 749 mmHg 81%
    13:00 +13°C° 0.3 mm 3 mps 748 mmHg 79%
    14:00 +13°C° 0.2 mm 3 mps 749 mmHg 81%
    15:00 +12°C° 0.2 mm 3 mps 749 mmHg 82%
    16:00 +12°C° 0.2 mm 3 mps 749 mmHg 84%
    17:00 +12°C° 0.1 mm 2 mps 749 mmHg 87%
    18:00 +10°C° 0.1 mm 2 mps 749 mmHg 91%
    19:00 +10°C° 0.1 mm 2 mps 750 mmHg 94%
    20:00 +10°C° 0.1 mm 2 mps 750 mmHg 94%
    21:00 +10°C° 0.1 mm 2 mps 750 mmHg 93%
    22:00 +10°C° 0.1 mm 2 mps 751 mmHg 93%
    23:00 +11°C° 0.1 mm 1 mps 751 mmHg 94%

    Tomorrow, 23 February, Friday

    Time Temperature Precipitation Wind Pressure Humidity
    00:00 +11°C° 0.1 mm 1 mps 751 mmHg 94%
    01:00 +11°C° 0.1 mm 1 mps 751 mmHg 94%
    02:00 +11°C° 0.1 mm 1 mps 751 mmHg 94%
    03:00 +10°C° 0.1 mm 2 mps 750 mmHg 94%
    04:00 +10°C° 0.1 mm 2 mps 750 mmHg 95%
    05:00 +10°C° 0.2 mm 2 mps 750 mmHg 94%
    06:00 +10°C° 0.2 mm 2 mps 750 mmHg 94%
    07:00 +10°C° 0.2 mm 2 mps 751 mmHg 94%
    08:00 +10°C° 0.3 mm 2 mps 751 mmHg 93%
    09:00 +10°C° 0.3 mm 2 mps 751 mmHg 91%
    10:00 +12°C° 0.3 mm 2 mps 751 mmHg 90%
    11:00 +12°C° 0.5 mm 2 mps 751 mmHg 90%
    12:00 +12°C° 0.5 mm 2 mps 751 mmHg 89%
    13:00 +11°C° 0.5 mm 3 mps 750 mmHg 89%
    14:00 +11°C° 0.4 mm 3 mps 750 mmHg 90%
    15:00 +11°C° 0.4 mm 3 mps 750 mmHg 91%
    16:00 +10°C° 0.4 mm 3 mps 750 mmHg 92%
    17:00 +10°C° 0.3 mm 3 mps 751 mmHg 93%
    18:00 +10°C° 0.3 mm 3 mps 751 mmHg 94%
    19:00 +10°C° 0.3 mm 3 mps 751 mmHg 95%
    20:00 +10°C° 0.3 mm 3 mps 751 mmHg 95%
    21:00 +10°C° 0.3 mm 3 mps 752 mmHg 95%
    22:00 +10°C° 0.3 mm 3 mps 752 mmHg 96%
    23:00 +10°C° 0.4 mm 3 mps 752 mmHg 95%

    Day after tomorrow, 24 February, Saturday

    Time Temperature Precipitation Wind Pressure Humidity
    00:00 +10°C° 0.4 mm 3 mps 751 mmHg 95%
    01:00 +10°C° 0.4 mm 3 mps 751 mmHg 95%
    02:00 +9°C° 0.3 mm 3 mps 751 mmHg 95%
    03:00 +9°C° 0.3 mm 3 mps 751 mmHg 95%
    04:00 +8°C° 0.3 mm 4 mps 750 mmHg 95%
    05:00 +8°C° 0.5 mm 4 mps 750 mmHg 94%
    06:00 +8°C° 0.5 mm 4 mps 750 mmHg 94%
    07:00 +8°C° 0.5 mm 4 mps 750 mmHg 94%
    08:00 +8°C° 1 mm 4 mps 750 mmHg 93%
    09:00 +9°C° 1 mm 3 mps 750 mmHg 92%
    10:00 +9°C° 1 mm 3 mps 751 mmHg 92%
    11:00 +9°C° 1 mm 3 mps 750 mmHg 91%
    12:00 +9°C° 1 mm 3 mps 750 mmHg 91%
    13:00 +9°C° 1 mm 2 mps 749 mmHg 90%
    14:00 +9°C° 0.7 mm 2 mps 749 mmHg 90%
    15:00 +9°C° 0.7 mm 2 mps 749 mmHg 90%
    16:00 +9°C° 0.7 mm 1 mps 749 mmHg 90%
    17:00 +9°C° 0.3 mm 1 mps 749 mmHg 91%
    18:00 +9°C° 0.3 mm 1 mps 750 mmHg 93%
    19:00 +8°C° 0.3 mm 1 mps 750 mmHg 94%
    20:00 +8°C° 0.3 mm 1 mps 750 mmHg 94%
    21:00 +8°C° 0.3 mm 1 mps 750 mmHg 94%
    22:00 +8°C° 0.3 mm 1 mps 751 mmHg 95%
    23:00 +8°C° 0.4 mm 1 mps 751 mmHg 95%

    25 February, Sunday

    Time Temperature Precipitation Wind Pressure Humidity
    00:00 +8°C° 0.4 mm 1 mps 751 mmHg 95%
    01:00 +8°C° 0.4 mm 1 mps 751 mmHg 95%
    02:00 +8°C° 0.3 mm 1 mps 750 mmHg 95%
    03:00 +7°C° 0.3 mm 1 mps 750 mmHg 95%
    04:00 +7°C° 0.3 mm 1 mps 750 mmHg 96%
    05:00 +7°C° 0.4 mm 1 mps 750 mmHg 95%
    06:00 +8°C° 0.4 mm 1 mps 750 mmHg 95%
    07:00 +7°C° 0.4 mm 2 mps 750 mmHg 94%
    08:00 +7°C° 0.7 mm 2 mps 750 mmHg 92%
    09:00 +8°C° 0.7 mm 2 mps 750 mmHg 90%
    10:00 +8°C° 0.7 mm 2 mps 751 mmHg 88%
    11:00 +9°C° 0.8 mm 2 mps 750 mmHg 88%
    12:00 +9°C° 0.8 mm 2 mps 750 mmHg 88%
    13:00 +9°C° 0.8 mm 2 mps 750 mmHg 87%
    14:00 +9°C° 0.6 mm 3 mps 750 mmHg 87%
    15:00 +9°C° 0.6 mm 3 mps 750 mmHg 87%
    16:00 +9°C° 0.6 mm 3 mps 750 mmHg 87%
    17:00 +9°C° 0.5 mm 3 mps 750 mmHg 89%
    18:00 +8°C° 0.5 mm 3 mps 750 mmHg 91%
    19:00 +8°C° 0.5 mm 3 mps 750 mmHg 93%
    20:00 +8°C° 0.8 mm 3 mps 750 mmHg 94%
    21:00 +8°C° 0.8 mm 3 mps 750 mmHg 94%
    22:00 +8°C° 0.8 mm 3 mps 751 mmHg 95%
    23:00 +8°C° 1 mm 3 mps 750 mmHg 95%

    26 February, Monday

    Time Temperature Precipitation Wind Pressure Humidity
    00:00 +8°C° 1 mm 3 mps 750 mmHg 95%
    01:00 +8°C° 1 mm 3 mps 749 mmHg 95%
    02:00 +8°C° 1.6 mm 3 mps 749 mmHg 96%
    03:00 +7°C° 1.6 mm 4 mps 748 mmHg 96%
    04:00 +7°C° 1.6 mm 4 mps 748 mmHg 96%
    05:00 +7°C° 2.4 mm 4 mps 747 mmHg 96%
    06:00 +7°C° 2.4 mm 4 mps 747 mmHg 96%
    07:00 +7°C° 2.4 mm 5 mps 747 mmHg 96%
    08:00 +7°C° 2.2 mm 5 mps 746 mmHg 95%
    09:00 +7°C° 2.2 mm 6 mps 746 mmHg 94%
    10:00 +6°C° 2.2 mm 7 mps 745 mmHg 93%
    11:00 +7°C° 2.8 mm 6 mps 745 mmHg 93%
    12:00 +7°C° 2.8 mm 6 mps 744 mmHg 94%
    13:00 +7°C° 2.8 mm 5 mps 744 mmHg 94%
    14:00 +7°C° 2.9 mm 5 mps 744 mmHg 94%
    15:00 +7°C° 2.9 mm 4 mps 743 mmHg 94%
    16:00 +7°C° 2.9 mm 4 mps 743 mmHg 94%
    17:00 +7°C° 2.1 mm 4 mps 743 mmHg 94%
    18:00 +6°C° 2.1 mm 4 mps 743 mmHg 95%
    19:00 +6°C° 2.1 mm 4 mps 743 mmHg 95%
    20:00 +7°C° 1.4 mm 3 mps 743 mmHg 94%
    21:00 +7°C° 1.4 mm 3 mps 743 mmHg 94%
    22:00 +7°C° 1.4 mm 3 mps 743 mmHg 94%
    23:00 +7°C° 0.5 mm 2 mps 743 mmHg 94%

    27 February, Tuesday

    Time Temperature Precipitation Wind Pressure Humidity
    00:00 +7°C° 0.5 mm 2 mps 742 mmHg 94%
    01:00 +7°C° 0.5 mm 2 mps 742 mmHg 93%
    02:00 +7°C° 0.2 mm 3 mps 742 mmHg 90%
    03:00 +6°C° 0.2 mm 4 mps 742 mmHg 88%
    04:00 +6°C° 0.2 mm 4 mps 742 mmHg 85%
    05:00 +6°C° 0 mm 4 mps 742 mmHg 83%
    06:00 +5°C° 0 mm 4 mps 742 mmHg 81%
    07:00 +5°C° 0 mm 4 mps 743 mmHg 79%
    08:00 +7°C° 0 mm 5 mps 743 mmHg 73%
    09:00 +8°C° 0 mm 5 mps 743 mmHg 66%
    10:00 +10°C° 0 mm 6 mps 743 mmHg 60%
    11:00 +10°C° 0 mm 6 mps 743 mmHg 58%
    12:00 +11°C° 0 mm 6 mps 743 mmHg 56%
    13:00 +11°C° 0 mm 6 mps 743 mmHg 55%
    14:00 +12°C° 0 mm 5 mps 744 mmHg 57%
    15:00 +12°C° 0 mm 5 mps 744 mmHg 59%
    16:00 +11°C° 0 mm 4 mps 744 mmHg 61%
    17:00 +10°C° 0 mm 3 mps 744 mmHg 64%
    18:00 +9°C° 0 mm 2 mps 745 mmHg 68%
    19:00 +7°C° 0 mm 2 mps 745 mmHg 71%
    20:00 +7°C° 0 mm 2 mps 745 mmHg 71%
    21:00 +7°C° 0 mm 2 mps 746 mmHg 72%
    22:00 +6°C° 0 mm 2 mps 746 mmHg 72%
    23:00 +6°C° 0 mm 2 mps 746 mmHg 72%
    Show more